Flag for USA

Past Weather in Bowling Green, Kentucky, USA — Yesterday and Last 2 Weeks

Now
52 °F

Fog.


Feels Like: 52 °F
Forecast: 57 / 51 °F
Wind: No wind

Location: Glasgow Municipal Airport
Current Time: Oct 26, 2020 at 8:18:12 am
Latest Report: Oct 26, 2020 at 7:35 am
Visibility: 5 mi
Pressure30.12 "Hg
Humidity: 98%
Dew Point: 51 °F
Location of Bowling GreenLocation

Past Weather in Bowling Green — Graph

°F

Bowling Green Temperature Yesterday

Maximum temperature yesterday: 57 °F (at 4:55 pm)
Minimum temperature yesterday: 47 °F (at 12:35 am)
Average temperature yesterday: 52 °F

High & Low Weather Summary for the Past Weeks

 TemperatureHumidityPressure
High83 °F (Oct 22, 3:55 pm)100% (Oct 11, 6:35 am)30.36 "Hg (Oct 11, 6:35 am)
Low32 °F (Oct 17, 6:35 am)25% (Oct 16, 2:15 pm)29.79 "Hg (Oct 12, 2:55 pm)
Average59 °F83%30.09 "Hg
* Reported Oct 11 6:15 am — Oct 26 6:55 am, Bowling Green. Weather by CustomWeather, © 2020

Note: Actual official high and low records may vary slightly from our data, if they occured in-between our weather recording intervals... More about our weather records

Bowling Green Weather History for the Previous 24 Hours

Scroll right to see more
 ConditionsComfort  
Time TempWeatherWind HumidityBarometerVisibility
6:55 am
Mon, Oct 26
52 °FMore clouds than sun.No wind98%30.13 "Hg10 mi
6:35 am52 °FLow clouds.No wind98%30.13 "Hg10 mi
6:15 am52 °FLow clouds.No wind99%30.12 "Hg7 mi
5:55 am52 °FLow clouds.3 mph100%30.11 "Hg7 mi
5:15 am53 °FLow clouds.No wind100%30.10 "Hg7 mi
4:55 am52 °FFog.No wind100%30.08 "Hg5 mi
4:35 am52 °FFog.No wind100%30.07 "Hg4 mi
4:15 am52 °FFog.3 mph100%30.07 "Hg4 mi
3:55 am52 °FFog.No wind100%30.08 "Hg3 mi
3:35 am53 °FFog.No wind100%30.07 "Hg2 mi
2:55 am53 °FFog.3 mph100%30.06 "Hg1 mi
2:35 am53 °FFog.No wind100%30.06 "Hg1 mi
2:15 am53 °FFog.No wind100%30.06 "Hg1 mi
1:55 am53 °FFog.No wind100%30.07 "Hg1 mi
1:35 am54 °FFog.5 mph100%30.06 "Hg1 mi
12:55 am54 °FLow clouds.No wind100%30.05 "Hg7 mi
12:35 am54 °FFog.No wind100%30.05 "Hg5 mi
12:15 am54 °FFog.No wind100%30.05 "Hg5 mi
11:55 pm
Sun, Oct 25
54 °FFog.No wind100%30.05 "Hg4 mi
11:15 pm55 °FLow clouds.No wind100%30.04 "Hg7 mi
10:55 pm55 °FLow clouds.No wind100%30.04 "Hg7 mi
10:35 pm55 °FLow clouds.No wind99%30.04 "Hg7 mi
10:15 pm55 °FLow clouds.No wind99%30.04 "Hg7 mi
9:55 pm55 °FLow clouds.No wind99%30.03 "Hg10 mi
9:35 pm55 °FLow clouds.No wind99%30.03 "Hg7 mi
8:55 pm55 °FLow clouds.No wind99%30.02 "Hg10 mi
8:35 pm55 °FLow clouds.No wind99%30.02 "Hg10 mi
8:15 pm55 °FLow clouds.3 mph99%30.02 "Hg7 mi
7:55 pm55 °FLow clouds.5 mph99%30.01 "Hg7 mi
7:15 pm55 °FFog.No wind100%30.02 "Hg5 mi
6:55 pm55 °FFog.No wind100%30.01 "Hg5 mi
6:35 pm55 °FFog.No wind100%30.01 "Hg4 mi
5:55 pm55 °FLow clouds.No wind98%29.99 "Hg7 mi
5:35 pm56 °FFog.No wind96%29.99 "Hg5 mi
5:15 pm56 °FLow clouds.No wind94%30.00 "Hg10 mi
4:55 pm57 °FLow clouds.No wind92%29.99 "Hg10 mi
4:35 pm56 °FLow clouds.No wind92%29.99 "Hg10 mi
4:15 pm56 °FLow clouds.3 mph91%29.98 "Hg10 mi
3:55 pm56 °FLow clouds.3 mph92%29.98 "Hg10 mi
3:35 pm56 °FLow clouds.5 mph93%29.99 "Hg10 mi
3:15 pm56 °FLow clouds.No wind93%29.98 "Hg10 mi
2:55 pm56 °FLow clouds.No wind93%29.99 "Hg10 mi
2:35 pm56 °FLow clouds.3 mph94%30.00 "Hg7 mi
1:55 pm55 °FLow clouds.3 mph93%30.00 "Hg10 mi
1:35 pm56 °FLow clouds.No wind92%30.00 "Hg10 mi
12:55 pm55 °FLow clouds.No wind93%30.02 "Hg10 mi
12:35 pm55 °FLow clouds.No wind94%30.02 "Hg10 mi
11:55 am54 °FLow clouds.No wind95%30.03 "Hg10 mi
11:15 am53 °FLow clouds.3 mph96%30.04 "Hg10 mi
10:55 am53 °FLow clouds.5 mph97%30.04 "Hg10 mi
10:35 am52 °FLow clouds.5 mph99%30.04 "Hg10 mi
10:15 am52 °FLow clouds.5 mph99%30.04 "Hg7 mi
9:55 am51 °FFog.6 mph100%30.04 "Hg5 mi
9:35 am51 °FFog.5 mph100%30.05 "Hg3 mi
9:15 am50 °FFog.6 mph100%30.05 "Hg3 mi
8:55 am50 °FFog.6 mph100%30.05 "Hg3 mi
8:35 am49 °FFog.3 mph100%30.05 "Hg3 mi
8:15 am49 °FFog.No wind100%30.04 "Hg2 mi
Weather by CustomWeather, © 2020

See weather overview